• In Hungary
  • List of Countries
  • For 7 days
  • Water Temperature
  • Satellite Maps
  • Weather Map
  • News
  • Weather Widgets
  • user-avatar
    Login

    Hourly Weather Quito

    Today, 21 August, Tuesday

    Time Temperature Precipitation Wind Pressure Humidity
    00:00 +9°C° 0 mm 2 mps 536 mmHg 79%
    01:00 +10°C° 0 mm 1 mps 536 mmHg 80%
    02:00 +10°C° 0 mm 1 mps 536 mmHg 80%
    03:00 +9°C° 0 mm 2 mps 536 mmHg 79%
    04:00 +9°C° 0 mm 2 mps 535 mmHg 79%
    05:00 +9°C° 0.1 mm 2 mps 536 mmHg 79%
    06:00 +9°C° 0.1 mm 2 mps 536 mmHg 78%
    07:00 +9°C° 0 mm 2 mps 536 mmHg 75%
    08:00 +12°C° 0 mm 2 mps 537 mmHg 68%
    09:00 +15°C° 0 mm 2 mps 539 mmHg 62%
    10:00 +17°C° 0 mm 2 mps 540 mmHg 56%
    11:00 +17°C° 0.1 mm 2 mps 540 mmHg 56%
    12:00 +17°C° 0.1 mm 2 mps 539 mmHg 56%
    13:00 +17°C° 0.1 mm 2 mps 539 mmHg 57%
    14:00 +17°C° 0.7 mm 2 mps 538 mmHg 60%
    15:00 +16°C° 0.7 mm 2 mps 538 mmHg 63%
    16:00 +15°C° 0.7 mm 2 mps 537 mmHg 67%
    17:00 +14°C° 0.5 mm 2 mps 537 mmHg 72%
    18:00 +12°C° 0.5 mm 1 mps 536 mmHg 78%
    19:00 +11°C° 0.5 mm 1 mps 536 mmHg 84%
    20:00 +11°C° 0.3 mm 1 mps 536 mmHg 84%
    21:00 +11°C° 0.3 mm 1 mps 536 mmHg 83%
    22:00 +10°C° 0.3 mm 1 mps 536 mmHg 83%
    23:00 +10°C° 0.4 mm 1 mps 536 mmHg 84%

    Tomorrow, 22 August, Wednesday

    Time Temperature Precipitation Wind Pressure Humidity
    00:00 +10°C° 0.4 mm 1 mps 536 mmHg 85%
    01:00 +10°C° 0.4 mm 1 mps 536 mmHg 86%
    02:00 +10°C° 0.3 mm 1 mps 536 mmHg 86%
    03:00 +10°C° 0.3 mm 1 mps 536 mmHg 86%
    04:00 +10°C° 0.3 mm 1 mps 535 mmHg 86%
    05:00 +10°C° 0.4 mm 1 mps 536 mmHg 85%
    06:00 +10°C° 0.4 mm 1 mps 536 mmHg 84%
    07:00 +10°C° 0.4 mm 1 mps 536 mmHg 83%
    08:00 +12°C° 0.5 mm 1 mps 537 mmHg 78%
    09:00 +13°C° 0.5 mm 1 mps 538 mmHg 74%
    10:00 +15°C° 0.5 mm 2 mps 539 mmHg 69%
    11:00 +15°C° 0.7 mm 2 mps 539 mmHg 70%
    12:00 +15°C° 0.7 mm 2 mps 539 mmHg 70%
    13:00 +15°C° 0.7 mm 2 mps 538 mmHg 71%
    14:00 +15°C° 0.6 mm 2 mps 538 mmHg 71%
    15:00 +15°C° 0.6 mm 2 mps 537 mmHg 71%
    16:00 +15°C° 0.6 mm 2 mps 537 mmHg 71%
    17:00 +13°C° 0.7 mm 2 mps 536 mmHg 76%
    18:00 +12°C° 0.7 mm 1 mps 536 mmHg 82%
    19:00 +11°C° 0.7 mm 1 mps 535 mmHg 88%
    20:00 +10°C° 0.1 mm 1 mps 536 mmHg 87%
    21:00 +10°C° 0.1 mm 1 mps 536 mmHg 87%
    22:00 +10°C° 0.1 mm 1 mps 536 mmHg 87%
    23:00 +9°C° 0 mm 1 mps 536 mmHg 87%

    Day after tomorrow, 23 August, Thursday

    Time Temperature Precipitation Wind Pressure Humidity
    00:00 +9°C° 0 mm 1 mps 536 mmHg 87%
    01:00 +9°C° 0 mm 1 mps 535 mmHg 86%
    02:00 +9°C° 0 mm 1 mps 535 mmHg 86%
    03:00 +9°C° 0 mm 1 mps 535 mmHg 86%
    04:00 +9°C° 0 mm 1 mps 534 mmHg 86%
    05:00 +9°C° 0 mm 1 mps 535 mmHg 84%
    06:00 +9°C° 0 mm 1 mps 535 mmHg 83%
    07:00 +9°C° 0 mm 1 mps 535 mmHg 81%
    08:00 +12°C° 0 mm 1 mps 537 mmHg 73%
    09:00 +14°C° 0 mm 2 mps 538 mmHg 64%
    10:00 +16°C° 0 mm 2 mps 540 mmHg 56%
    11:00 +16°C° 0.1 mm 2 mps 539 mmHg 55%
    12:00 +17°C° 0.1 mm 2 mps 539 mmHg 54%
    13:00 +18°C° 0.1 mm 2 mps 539 mmHg 53%
    14:00 +17°C° 0.3 mm 2 mps 538 mmHg 57%
    15:00 +16°C° 0.3 mm 2 mps 537 mmHg 61%
    16:00 +15°C° 0.3 mm 2 mps 536 mmHg 66%
    17:00 +14°C° 0.3 mm 2 mps 536 mmHg 73%
    18:00 +12°C° 0.3 mm 1 mps 535 mmHg 80%
    19:00 +10°C° 0.3 mm 1 mps 535 mmHg 88%
    20:00 +10°C° 0.1 mm 1 mps 535 mmHg 87%
    21:00 +10°C° 0.1 mm 1 mps 535 mmHg 86%
    22:00 +9°C° 0.1 mm 1 mps 536 mmHg 85%
    23:00 +9°C° 0.1 mm 1 mps 535 mmHg 84%

    24 August, Friday

    Time Temperature Precipitation Wind Pressure Humidity
    00:00 +9°C° 0.1 mm 1 mps 535 mmHg 84%
    01:00 +9°C° 0.1 mm 1 mps 535 mmHg 84%
    02:00 +9°C° 0.1 mm 1 mps 534 mmHg 85%
    03:00 +9°C° 0.1 mm 1 mps 534 mmHg 86%
    04:00 +8°C° 0.1 mm 1 mps 534 mmHg 86%
    05:00 +9°C° 0 mm 1 mps 534 mmHg 84%
    06:00 +9°C° 0 mm 1 mps 534 mmHg 83%
    07:00 +9°C° 0 mm 1 mps 535 mmHg 81%
    08:00 +12°C° 0 mm 1 mps 536 mmHg 73%
    09:00 +14°C° 0 mm 2 mps 538 mmHg 65%
    10:00 +16°C° 0 mm 2 mps 539 mmHg 58%
    11:00 +16°C° 0.2 mm 2 mps 539 mmHg 57%
    12:00 +17°C° 0.2 mm 2 mps 539 mmHg 57%
    13:00 +17°C° 0.2 mm 3 mps 539 mmHg 57%
    14:00 +17°C° 0.6 mm 2 mps 538 mmHg 61%
    15:00 +16°C° 0.6 mm 2 mps 537 mmHg 64%
    16:00 +15°C° 0.6 mm 2 mps 536 mmHg 68%
    17:00 +13°C° 0.3 mm 2 mps 536 mmHg 74%
    18:00 +12°C° 0.3 mm 1 mps 535 mmHg 81%
    19:00 +10°C° 0.3 mm 1 mps 535 mmHg 88%
    20:00 +10°C° 0.1 mm 1 mps 535 mmHg 86%
    21:00 +10°C° 0.1 mm 1 mps 536 mmHg 85%
    22:00 +9°C° 0.1 mm 1 mps 536 mmHg 84%
    23:00 +9°C° 0 mm 1 mps 536 mmHg 83%

    25 August, Saturday

    Time Temperature Precipitation Wind Pressure Humidity
    00:00 +9°C° 0 mm 1 mps 535 mmHg 81%
    01:00 +8°C° 0 mm 1 mps 535 mmHg 80%
    02:00 +8°C° 0 mm 1 mps 535 mmHg 79%
    03:00 +8°C° 0 mm 1 mps 534 mmHg 78%
    04:00 +8°C° 0 mm 1 mps 534 mmHg 77%
    05:00 +7°C° 0 mm 2 mps 534 mmHg 74%
    06:00 +8°C° 0 mm 2 mps 535 mmHg 71%
    07:00 +8°C° 0 mm 2 mps 535 mmHg 68%
    08:00 +10°C° 0 mm 2 mps 537 mmHg 60%
    09:00 +14°C° 0 mm 2 mps 538 mmHg 53%
    10:00 +16°C° 0 mm 2 mps 540 mmHg 45%
    11:00 +17°C° 0 mm 2 mps 540 mmHg 47%
    12:00 +17°C° 0 mm 3 mps 539 mmHg 48%
    13:00 +18°C° 0 mm 3 mps 539 mmHg 50%
    14:00 +17°C° 0.6 mm 3 mps 538 mmHg 56%
    15:00 +16°C° 0.6 mm 3 mps 537 mmHg 62%
    16:00 +15°C° 0.6 mm 2 mps 536 mmHg 68%
    17:00 +13°C° 0.3 mm 2 mps 536 mmHg 73%
    18:00 +12°C° 0.3 mm 2 mps 536 mmHg 78%
    19:00 +10°C° 0.3 mm 1 mps 535 mmHg 83%
    20:00 +10°C° 0 mm 1 mps 536 mmHg 82%
    21:00 +9°C° 0 mm 1 mps 536 mmHg 81%
    22:00 +9°C° 0 mm 1 mps 536 mmHg 80%
    23:00 +9°C° 0 mm 1 mps 536 mmHg 79%

    26 August, Sunday

    Time Temperature Precipitation Wind Pressure Humidity
    00:00 +9°C° 0 mm 1 mps 535 mmHg 79%
    01:00 +9°C° 0 mm 1 mps 535 mmHg 79%
    02:00 +9°C° 0.1 mm 1 mps 535 mmHg 79%
    03:00 +9°C° 0.1 mm 1 mps 535 mmHg 80%
    04:00 +9°C° 0.1 mm 1 mps 535 mmHg 80%
    05:00 +10°C° 0.2 mm 1 mps 535 mmHg 80%
    06:00 +10°C° 0.2 mm 1 mps 536 mmHg 80%
    07:00 +10°C° 0.2 mm 1 mps 536 mmHg 79%
    08:00 +12°C° 0.2 mm 2 mps 537 mmHg 75%
    09:00 +13°C° 0.2 mm 2 mps 538 mmHg 70%
    10:00 +15°C° 0.2 mm 2 mps 539 mmHg 65%
    11:00 +15°C° 0.3 mm 2 mps 539 mmHg 64%
    12:00 +16°C° 0.3 mm 2 mps 539 mmHg 63%
    13:00 +16°C° 0.3 mm 2 mps 539 mmHg 62%
    14:00 +16°C° 0.3 mm 2 mps 538 mmHg 62%
    15:00 +16°C° 0.3 mm 2 mps 537 mmHg 62%
    16:00 +16°C° 0.3 mm 2 mps 537 mmHg 62%
    17:00 +14°C° 0.3 mm 2 mps 536 mmHg 69%
    18:00 +12°C° 0.3 mm 1 mps 536 mmHg 75%
    19:00 +10°C° 0.3 mm 1 mps 535 mmHg 82%
    20:00 +10°C° 0.2 mm 1 mps 536 mmHg 80%
    21:00 +9°C° 0.2 mm 1 mps 536 mmHg 77%
    22:00 +9°C° 0.2 mm 1 mps 536 mmHg 75%
    23:00 +8°C° 0.1 mm 1 mps 535 mmHg 76%
    Show more